sat.trackr.live / text

‹ back to catalog

JACKAL X-1L-002

NORAD 59134 · 2024-043AN

PAYLOAD ACTIVE UNKNOWN

§ Identity

Operator
Country
US
Launch date
2024-03-04
Launch site
AFWTR
Launch vehicle
Mass (kg)
RCS (m²)

External: N2YO · Heavens-Above · Gunter

§ Orbital elements

Epoch: 2026-09-22T09:27:28.613088Z

Period
92.95 min
Inclination
97.5694°
Eccentricity
0.0006146
Mean motion
15.49284052 rev/d
Perigee alt
414.6 km
Apogee alt
423.0 km
Semi-major
6,797.0 km
B*
2.5761e-4
RAAN
55.7731°
Arg perigee
208.2599°
Mean anomaly
151.8319°
Rev number
14,265

§ Raw data

JACKAL X-1L-0021 59134U 24043AN  26265.39408117  .00013996  00000+0  25761-3 0  99902 59134  97.5694  55.7731 0006146 208.2599 151.8319 15.49284052142650

JSON: /api/v1/satellites/59134 · /tle

For live sub-satellite position, see the globe view (requires WebGL).

§ Visibility from observer

Set your observer location to see the next 7 days of passes ≥ 10°. The values pass through the URL so the page stays shareable.

No JS? Fill the form by hand. The geolocation button needs JavaScript.